Regional Weather Roundup
Issued by NWS Newport/Morehead, NC

Home | Current Version | Previous Version | Text Only | Print | Product List | Glossary On
Versions: 1 2 3 4 5 6 7 8 9 10 11 12 13 14 15 16 17 18 19 20 21 22 23 24 25 26 27 28 29 30 31 32 33 34 35 36 37 38 39 40 41 42 43 44 45 46 47 48 49 50
000
ASUS42 KMHX 240213
RWRMHX
WEATHER ROUNDUP FOR EASTERN NORTH CAROLINA
NATIONAL WEATHER SERVICE NEWPORT/MOREHEAD CITY NC
1000 PM EDT THU MAR 23 2017

NOTE: "FAIR" INDICATES FEW OR NO CLOUDS BELOW 12,000 FEET
WITH NO SIGNIFICANT WEATHER AND/OR OBSTRUCTIONS TO VISIBILITY

NCZ015>017-031-032-045>047-102-103-240300-
NORTH COAST

CITY           SKY/WX    TMP DP  RH WIND       PRES   REMARKS
EDENTON        CLEAR     39  29  67 E8        30.60R
ELIZABETH CITY CLEAR     34  27  75 MISG      30.61R
KITTY HAWK     NOT AVBL
MANTEO         CLEAR     34  27  73 E3        30.61S

$$

NCZ045>047-081-094-103-104-240300-
CENTRAL COAST

CITY           SKY/WX    TMP DP  RH WIND       PRES   REMARKS
FRISCO         CLEAR     39  29  67 E3        30.59S

$$

NCZ095-097-098-100-101-240300-
SOUTHERN COAST

CITY           SKY/WX    TMP DP  RH WIND       PRES   REMARKS
BEAUFORT       CLEAR     41  31  67 NE7       30.57F
CEDAR ISLAND   NOT AVBL
JACKSONVILLE   CLEAR     44  32  62 E10       30.56S
PINEY ISLAND   CLEAR    N/A N/A N/A E9        30.58S
WILMINGTON     CLEAR     46  32  58 E6        30.55S


$$

NCZ011>013-027>030-043-044-078>080-089-090>093-098-240300-
COASTAL PLAIN

CITY           SKY/WX    TMP DP  RH WIND       PRES   REMARKS
AHOSKIE          N/A     37  28  67 CALM      30.59R
CLINTON        CLEAR     45  34  66 CALM      30.54F
ELIZABETHTOWN  CLEAR     45  34  65 CALM      30.54R
GOLDSBORO      CLEAR     43  27  53 SE7       30.54R
GREENVILLE     CLEAR     43  28  56 SE5       30.57R
HAVELOCK       NOT AVBL
KENANSVILLE    CLEAR     41  32  70 CALM      30.55S
KINSTON        NOT AVBL
NEW BERN       CLEAR     42  35  76 E6        30.59R
RICHLANDS      CLEAR     42  28  57 E6        30.56S
ROCKY MOUNT    CLEAR     40  27  59 CALM      30.56R
WASHINGTON     NOT AVBL
WHITEVILLE     CLEAR     47  32  56 E3        30.52F

$$

AMZ130-135-150-152-154-156-158-170-250-252-270-ANZ085-086-088-633-658-670-240300-
MARINE OBSERVATIONS

STATION/POSITION TIME  TEMP    WIND        PRES    WAVE   SWELL
                       AIR SEA DIR/SP/G            HT/PER HT/PER
                 (UTC) (F)     (DEG/KT/KT) (MB)    (FT/S) (FT/S)
CHESAPEAKE LIGHT NOT AVBL
64 E VA BEACH    0150   41 49   70/  6/  6 1036.3    4/ 8   3/ 8
DUCK             0148   39 48  100/  6/  9 1035.9
2 E DUCK         0200      47                N/A     3/ 7
OREGON INLET     0148           50/  7/  9 1036.1
13E OREGON INLT  NOT AVBL
HATTERAS CG      0148   41 52   60/  6/  9 1035.4
DIAMOND BUOY     0150   50 72   40/  8/ 14 1035.5    9/11  10/11
CAPE LOOKOUT     0200   48      40/ 13/ 15 1034.6
BEAUFORT LAB     0148   42 52   30/  4/  6 1034.4
30 SE NEW RVR IN 0108   51      70/ 12/ 17 1034.6
30 SE NEW RVR IN 0143      68                N/A     5/12   2/12
27 SE WRIGHTSVLE 0108   52 61   90/ 14/ 19 1033.2
5 SE WRIGHTSVLE  0108   51 56  100/ 14/ 21 1034.2
225 S CAPE HAT   0150   62 72   50/ 17/ 21 1031.8    7/11   5/11
41 SE CHARLESTON 0150   62 71   60/ 19/ 23 1030.9    7/ 7

$$



USA.gov is the U.S. government's official web portal to all federal, state and local government web resources and services.